Theta_e
310 311 317 319 321 320 318 318 317 318 319 323 324 322 321 323 323 323 322 324 322 323 325 322 321 318 318 318 321 316 313 314 316 314 315 316 315 316 319 325 325 326 327 328 335
310 312 314 320 320 320 318 318 317 317 320 325 324 322 321 322 321 320 323 323 325 321 320 320 318 317 319 317 316 314 314 316 315 314 314 315 316 316 321 325 326 327 328 331 334
312 314 314 319 319 320 319 318 316 316 321 323 324 322 323 320 316 320 322 321 323 322 321 316 319 320 321 317 315 314 315 314 316 316 316 315 314 318 320 322 324 325 326 333 334
313 314 314 314 319 319 318 318 316 316 321 324 324 321 322 319 318 319 322 321 321 322 321 320 322 322 321 323 319 316 314 314 314 314 315 314 316 316 320 319 321 322 321 331 333
314 316 316 315 320 319 318 317 316 315 319 323 324 320 322 316 318 320 319 320 320 319 322 323 323 320 318 317 320 315 314 314 314 314 315 315 314 315 318 316 317 323 326 329 332
311 312 314 316 319 318 318 316 315 315 319 323 323 321 321 319 319 318 316 317 319 320 323 324 323 321 315 313 320 315 314 315 314 313 315 314 313 315 316 316 320 323 326 329 331
310 313 314 313 319 318 318 315 315 315 318 323 322 322 320 320 320 315 316 317 319 319 321 323 322 322 316 317 317 314 314 311 312 314 313 313 313 312 314 317 324 326 326 328 330
311 312 315 314 319 319 317 315 315 314 319 323 322 320 319 320 317 317 316 315 315 315 319 322 325 324 320 320 321 313 311 312 311 312 312 313 314 312 314 318 326 328 328 329 330
313 313 316 318 319 318 316 315 315 316 320 323 320 319 316 317 318 316 319 315 317 317 317 318 321 319 316 322 324 322 318 310 311 310 310 311 313 311 313 320 326 328 328 329 330
312 314 316 314 318 316 315 315 318 320 321 319 317 317 312 314 317 317 314 316 318 316 315 315 314 315 316 323 328 325 319 311 311 311 310 310 310 309 310 322 325 327 328 329 329
311 314 314 318 317 316 315 319 321 320 316 316 314 312 312 314 315 315 315 320 319 319 320 314 315 318 318 322 317 323 317 313 310 310 311 310 310 310 309 311 322 326 328 329 329
310 314 317 317 316 315 318 320 318 318 312 314 314 310 311 314 316 320 320 320 319 321 316 314 316 315 316 316 320 313 322 318 310 309 310 310 311 308 306 308 313 320 325 327 327
306 313 314 315 315 317 319 318 316 316 311 311 312 310 312 313 316 319 320 318 320 318 318 320 317 314 313 315 312 316 314 312 312 309 308 309 310 309 307 308 310 311 316 321 323
306 310 315 314 317 319 317 316 315 315 312 311 312 310 310 313 313 318 318 316 314 320 315 314 315 316 314 314 313 314 309 310 309 311 313 307 312 308 306 306 306 310 311 312 313
306 308 315 314 317 318 318 316 314 315 318 310 311 310 310 312 312 315 315 314 315 317 314 315 311 313 312 313 314 316 308 309 310 309 309 308 308 310 305 306 305 307 311 312 312
305 307 312 314 316 317 317 316 313 314 316 311 308 308 309 308 309 312 311 312 313 315 314 312 310 309 310 309 313 308 310 309 308 307 310 310 307 308 306 305 306 308 311 313 313
306 308 310 315 316 317 317 311 312 317 307 308 308 308 309 307 307 311 309 310 312 318 316 313 313 309 308 310 308 311 310 313 313 309 312 304 305 311 307 303 306 309 313 313 312
307 307 311 315 316 316 314 312 315 308 309 305 307 309 308 307 306 309 308 310 307 309 313 316 317 312 310 311 309 310 312 311 313 311 311 303 307 309 305 307 308 308 310 311 312
307 308 312 315 316 315 311 315 314 308 305 307 307 309 307 308 307 308 309 310 308 307 312 314 316 309 307 310 311 310 315 309 307 299 306 305 304 304 304 303 306 307 307 310 311
305 307 314 315 314 311 313 315 304 305 306 308 308 306 307 309 307 307 310 308 307 306 306 307 310 307 309 310 309 310 310 312 310 308 308 305 304 308 306 307 306 306 308 310 310
305 303 313 314 313 311 314 313 305 306 307 306 305 305 306 308 306 309 309 307 307 306 304 305 308 308 307 309 311 311 312 310 310 308 310 309 308 301 306 306 307 307 310 310 310
301 303 309 313 312 309 313 307 307 305 306 305 305 304 307 307 306 309 308 309 309 307 308 305 306 307 308 307 309 311 312 313 314 312 304 307 309 304 302 302 305 305 308 309 310
300 301 307 312 312 309 310 307 308 305 306 305 305 306 305 307 307 307 306 308 309 307 308 306 307 306 309 308 306 310 308 309 312 307 311 311 311 303 303 305 307 307 307 308 309
300 304 302 311 310 310 310 308 307 307 307 306 305 305 306 307 306 306 306 306 308 309 308 309 308 308 310 309 307 307 310 308 309 312 313 312 310 306 306 306 305 307 307 308 308
300 299 299 308 309 310 309 307 308 309 308 308 307 306 306 306 306 306 306 308 306 308 308 308 309 306 307 307 308 308 309 310 310 310 311 311 307 305 305 305 306 308 308 308 309
299 299 300 301 307 311 310 308 308 309 309 309 306 304 305 305 306 306 307 307 307 306 306 304 303 306 304 307 307 307 307 308 310 311 310 310 311 309 308 307 307 309 308 309 310
299 300 299 301 308 310 309 308 307 308 308 308 306 306 306 306 307 308 308 308 307 307 308 306 303 302 304 303 306 305 307 306 307 307 309 309 310 304 304 303 305 307 308 309 310
Wind_Speed
44 45 33 48 46 46 40 35 31 37 38 36 32 28 24 21 19 20 23 24 23 14 23 21 18 13 5 7 5 4 4 2 4 5 5 8 5 6 6 12 6 8 4 7 27
35 41 44 47 51 47 42 38 33 40 40 36 31 30 26 22 20 23 24 23 25 17 19 22 19 14 9 6 7 3 3 6 5 4 4 10 8 16 7 10 4 7 6 20 30
35 37 44 39 54 52 44 41 35 43 40 42 34 31 27 21 16 26 24 21 21 26 20 19 17 12 6 5 3 3 2 3 4 7 5 8 8 12 12 3 12 16 17 30 32
39 37 37 42 54 52 47 44 38 45 43 38 36 33 26 22 8 6 27 27 23 23 19 23 16 12 7 6 5 3 2 9 7 3 3 5 9 8 16 7 15 15 19 33 34
30 31 39 51 54 51 48 46 40 45 43 41 37 34 30 22 15 2 21 27 25 21 21 24 19 11 6 7 6 3 6 11 10 11 4 7 6 5 16 7 8 17 25 33 34
29 31 36 45 54 51 49 47 40 46 43 42 37 36 33 13 25 5 20 27 26 26 19 23 18 14 11 5 9 5 8 18 11 5 3 4 2 5 9 8 11 20 29 34 34
24 30 29 36 55 52 50 45 41 46 47 44 42 38 28 21 17 8 26 25 21 25 28 21 18 19 12 6 1 4 4 8 10 5 1 4 1 6 6 12 16 24 27 32 33
26 34 32 38 50 50 47 45 43 47 47 46 41 34 11 28 12 18 27 23 18 14 24 26 22 13 8 4 3 2 3 4 4 5 4 7 8 4 9 18 21 25 27 32 33
22 26 30 37 49 48 47 42 42 47 46 41 40 27 7 18 22 23 26 33 23 19 19 18 23 8 9 8 2 2 6 2 7 4 2 5 6 4 13 20 24 27 28 31 33
17 27 37 39 50 49 45 43 46 45 45 43 36 17 12 19 26 26 23 34 26 21 18 11 5 3 3 11 12 8 8 4 5 4 0 4 7 3 12 19 26 28 29 32 32
15 34 36 54 52 48 46 47 46 31 28 11 22 4 27 24 26 23 24 32 21 18 5 5 4 10 15 16 8 13 5 6 2 3 4 6 7 10 8 13 17 26 30 31 32
16 14 42 46 48 48 53 46 41 28 17 11 24 14 32 36 16 24 29 17 15 12 9 5 12 7 10 11 11 1 8 10 4 4 2 3 12 6 7 12 26 30 30 32 31
25 15 46 47 46 53 52 37 34 44 8 7 21 18 34 28 12 29 30 11 15 9 15 8 2 15 8 10 8 6 7 6 5 1 1 2 7 5 6 15 18 27 28 30 33
23 17 43 45 51 53 41 38 33 38 4 4 7 9 18 18 5 30 25 8 3 9 10 2 4 17 12 14 12 7 11 6 4 6 6 1 6 6 6 9 10 28 28 32 33
21 24 35 50 44 52 46 47 43 29 8 13 7 21 23 17 25 16 20 7 7 8 6 4 2 14 17 17 15 5 5 5 2 2 3 4 2 7 2 9 7 21 32 34 36
20 28 32 53 37 49 46 54 35 6 5 8 10 9 13 5 5 26 11 9 7 5 3 3 3 4 7 8 18 9 8 4 3 3 3 11 7 5 9 7 7 21 34 37 38
20 27 19 60 47 50 45 38 6 7 9 8 8 12 14 6 6 16 13 7 6 7 5 2 3 4 4 7 4 15 10 3 5 2 11 0 5 16 5 9 8 19 39 40 39
14 26 24 57 48 57 59 10 5 6 9 5 9 20 7 15 3 7 12 7 5 5 4 7 5 9 3 6 5 18 13 6 8 5 6 3 8 7 10 15 15 20 21 27 39
14 31 22 48 58 65 38 14 9 10 8 10 16 19 5 7 8 10 16 14 9 8 7 7 6 3 4 3 6 5 16 2 4 2 3 5 8 7 7 9 11 20 19 27 29
14 20 38 54 69 55 18 15 6 9 14 22 9 7 9 19 7 10 19 17 10 11 4 8 3 4 9 6 4 2 5 7 1 2 4 4 5 7 3 11 10 12 26 32 29
7 7 36 62 59 38 17 10 6 9 23 7 8 8 9 15 7 14 21 3 10 15 6 6 4 3 6 7 11 6 5 4 2 3 4 0 6 7 11 11 12 16 29 33 32
8 3 21 69 12 7 14 8 7 7 2 5 6 5 12 17 5 12 14 9 30 24 15 6 5 4 6 4 6 9 13 15 7 11 1 1 9 2 8 8 10 17 19 22 24
4 3 23 49 13 11 12 2 4 8 5 5 5 4 6 12 6 5 9 17 28 17 18 9 3 3 4 3 2 9 7 6 13 2 10 6 10 1 6 8 12 13 15 16 19
4 2 4 22 14 18 21 10 6 11 5 4 6 6 10 10 0 12 10 6 24 24 14 20 4 7 9 4 7 7 17 14 15 6 12 19 19 9 9 10 7 7 10 12 18
2 2 3 6 7 21 19 9 7 7 3 7 3 10 11 6 6 5 5 4 5 19 11 6 8 5 1 1 11 9 20 25 21 21 11 30 16 9 9 10 11 14 12 12 18
4 1 2 3 14 22 20 20 10 5 7 6 9 10 6 8 9 7 8 5 8 3 8 0 3 4 3 6 1 5 14 22 29 28 22 27 29 13 15 16 19 28 17 17 21
4 9 3 4 9 14 20 29 18 11 5 7 11 7 5 6 17 21 16 16 13 13 15 7 6 3 5 2 2 4 16 14 13 14 22 19 28 8 11 12 21 25 25 25 26
Wind_Direction
238 251 238 218 213 214 212 214 221 218 213 206 207 206 206 204 211 214 209 211 206 199 199 198 212 202 185 127 159 16 67 194 224 157 235 172 144 153 168 153 163 195 180 182 166
234 233 241 222 217 214 211 213 216 214 207 202 205 203 204 202 209 219 214 210 213 201 195 199 204 202 190 149 118 139 115 215 209 210 222 188 176 160 154 164 202 189 187 166 167
234 232 233 234 214 214 212 212 209 210 203 206 201 202 198 193 212 235 217 209 209 206 199 194 203 197 172 147 94 82 204 344 286 251 239 196 184 173 150 213 209 193 170 170 172
235 233 233 240 211 212 210 207 207 207 203 202 200 199 192 190 191 236 214 211 207 206 204 199 197 179 169 154 120 68 256 312 292 321 194 193 181 180 179 204 219 209 189 176 181
232 232 231 225 210 207 204 204 205 203 202 201 196 192 190 188 214 285 193 203 200 194 202 197 190 180 145 131 117 89 281 304 306 304 265 204 199 196 204 216 211 192 188 185 188
240 243 236 215 206 202 201 200 202 198 199 200 193 191 193 205 211 247 185 194 197 190 183 192 192 188 127 110 162 198 276 287 285 303 215 177 166 192 203 214 192 189 191 193 194
242 240 227 239 198 198 197 197 198 197 199 204 196 189 185 192 213 211 185 190 196 203 201 191 175 172 137 105 269 321 301 288 247 186 179 144 40 230 202 195 184 188 193 196 199
252 227 226 218 194 195 195 195 200 196 197 188 182 183 184 196 181 194 184 174 161 179 191 206 201 159 136 127 59 58 279 255 299 183 151 146 251 244 199 192 190 195 192 198 202
246 232 211 211 195 191 193 191 188 190 196 194 173 175 152 202 204 184 183 180 165 144 146 161 164 138 125 144 105 227 243 275 314 248 130 141 248 267 202 196 199 198 197 201 209
250 220 204 217 187 189 188 181 182 180 191 165 162 137 180 185 181 182 183 185 170 132 124 128 119 100 132 173 200 176 213 251 226 222 266 157 252 286 209 202 208 203 203 207 215
261 215 228 184 183 184 177 174 155 164 152 168 157 140 158 163 168 179 177 175 166 166 144 159 164 202 184 194 140 204 179 230 245 244 187 206 235 243 212 218 220 219 210 214 220
249 240 192 183 185 181 175 167 168 173 105 136 161 124 149 157 135 157 167 155 168 178 127 131 225 191 164 183 206 112 217 228 294 339 256 191 248 248 200 223 222 222 218 219 223
251 233 182 187 184 178 174 176 158 153 103 69 150 141 152 158 139 161 175 142 171 163 177 185 210 165 170 184 163 202 217 234 233 124 130 340 286 233 226 229 233 234 236 230 227
249 237 197 185 181 175 167 161 158 153 97 128 178 152 157 146 85 168 174 140 83 174 163 203 214 178 188 194 178 194 194 209 157 157 230 348 266 261 217 232 211 229 229 235 235
233 237 198 193 177 177 162 159 153 174 182 153 156 160 157 156 139 182 169 150 143 145 148 176 181 183 195 195 178 191 152 155 158 136 104 231 239 238 122 238 233 234 229 232 236
234 238 206 195 184 177 168 161 160 138 174 160 140 173 148 140 146 152 158 137 114 103 43 126 295 214 194 169 179 145 91 18 48 119 247 211 198 245 206 196 225 229 231 231 234
230 223 212 189 180 177 166 148 135 176 157 158 172 168 154 137 113 165 165 138 145 141 174 107 258 304 208 134 128 167 150 173 227 184 234 8 163 239 225 220 213 218 228 231 232
225 221 210 182 177 171 159 159 152 141 166 133 135 146 145 141 86 150 148 164 221 119 132 158 206 207 222 190 176 193 177 174 188 207 224 108 237 249 225 238 239 246 243 243 240
221 217 213 175 170 165 155 175 173 156 157 127 119 146 146 189 137 149 189 186 183 170 142 165 242 122 222 167 158 170 198 238 81 28 77 203 280 294 259 273 260 245 240 238 237
216 217 184 174 164 162 172 193 118 135 131 146 142 168 163 174 130 170 175 201 176 173 162 194 143 204 192 138 65 100 173 208 186 206 234 249 281 232 233 230 227 238 240 240 238
190 191 169 176 167 163 188 171 114 157 137 141 144 157 169 175 153 180 185 241 168 178 153 152 112 13 133 211 187 143 209 205 321 191 205 228 260 216 205 223 229 231 240 246 238
174 210 163 162 154 189 173 147 131 152 168 113 106 111 166 162 117 174 191 192 186 163 192 199 122 142 189 333 161 201 203 201 195 207 237 25 255 197 238 275 279 277 275 267 255
207 311 197 174 172 180 145 148 114 148 151 149 115 140 146 156 141 170 178 216 178 168 171 170 165 83 36 336 75 210 199 168 216 358 239 239 250 237 243 262 264 277 279 262 245
175 189 248 198 173 162 166 169 114 165 145 115 116 112 118 163 57 181 170 174 180 193 176 160 156 159 187 206 138 189 195 194 190 205 246 253 266 300 300 297 266 260 271 256 241
21 344 341 182 155 173 171 151 114 153 192 148 89 159 150 135 161 142 132 101 141 190 179 177 205 159 130 188 173 179 192 201 209 217 215 242 243 217 246 274 300 307 280 255 236
133 33 308 358 140 172 174 184 150 144 148 187 137 162 156 149 182 155 124 159 167 153 158 143 228 119 2 339 243 201 200 202 211 217 226 245 260 256 254 270 263 267 248 243 240
107 82 49 354 158 170 191 180 174 132 30 129 141 129 136 176 172 173 161 159 160 166 185 149 132 105 224 327 69 320 225 202 213 215 218 230 244 181 227 238 247 260 252 244 249